Location: Sweet Grass
(48.9965°N, 111.9649°W)
Time: 06:56:57
(UTC+00:00)

DIWATA 2B (PO-101) - Pass Details

Date: 11 April 2023
Orbit: 581 x 594 km, 98.0° (Epoch: 03 June)

Event Time Altitude Azimuth Distance (km) Brightness Sun altitude
Exits shadow 11:03:39 16° 288° (WNW) 1,579 ? -16.0°
Drops below altitude 10° 11:05:17 10° 311° (NW) 1,912 ? -15.8°
Sets 11:08:07 0° 332° (NNW) 2,821 ? -15.4°
